CW6062 Weather Reports


Display with metric or nautical units.
time (UTC)temp
F
wind
direction
speed
MPH
gust
MPH
rain 1hr
in
rain 24hr
in
rain mn
in
humidity
%
barometer
mb
20260504202448 74 219 1.0 4.0 0.00 0.00 0.00 38 1011.1
20260504201949 73 285 2.0 5.0 0.00 0.00 0.00 36 1011.1
20260504201448 73 47 1.0 5.0 0.00 0.00 0.00 35 1011.1
20260504200948 73 96 1.0 5.0 0.00 0.00 0.00 36 1011.2
20260504200448 73 13 1.0 5.0 0.00 0.00 0.00 37 1011.1
20260504195948 73 296 1.0 4.0 0.00 0.00 0.00 37 1011.1
20260504195448 73 308 1.0 4.0 0.00 0.00 0.00 38 1011.1
20260504194946 73 284 1.0 3.0 0.00 0.00 0.00 38 1011.1
20260504194447 73 257 1.0 5.0 0.00 0.00 0.00 37 1011.1
20260504193944 73 41 1.0 5.0 0.00 0.00 0.00 38 1011.3
20260504193445 73 88 1.0 4.0 0.00 0.00 0.00 39 1011.3
20260504192944 72 305 1.0 2.0 0.00 0.00 0.00 37 1011.3
20260504192444 72 27 1.0 4.0 0.00 0.00 0.00 39 1011.3
20260504192201 71 280 2.0 10.0 0.00 0.00 0.00 38 1011.3
20260504191444 71 296 1.0 10.0 0.00 0.00 0.00 39 1011.4
20260504190945 71 306 1.0 4.0 0.00 0.00 0.00 37 1011.3
20260504190444 71 344 2.0 4.0 0.00 0.00 0.00 38 1011.4
20260504185944 71 82 1.0 3.0 0.00 0.00 0.00 36 1011.4
20260504185709 71 355 1.0 3.0 0.00 0.00 0.00 39 1011.5
20260504184944 70 271 1.0 4.0 0.00 0.00 0.00 39 1011.4
20260504184444 70 182 1.0 4.0 0.00 0.00 0.00 42 1011.4
20260504183944 70 91 1.0 3.0 0.00 0.00 0.00 44 1011.5
20260504183444 69 279 1.0 3.0 0.00 0.00 0.00 41 1011.4
20260504182944 69 305 1.0 3.0 0.00 0.00 0.00 45 1011.5
20260504182445 68 0 1.0 7.0 0.00 0.00 0.00 42 1011.5
20260504181944 68 283 1.0 7.0 0.00 0.00 0.00 44 1011.6
20260504181444 68 333 1.0 4.0 0.00 0.00 0.00 44 1011.6
20260504180944 68 302 1.0 4.0 0.00 0.00 0.00 43 1011.6
20260504180444 68 312 1.0 4.0 0.00 0.00 0.00 41 1011.6
20260504180201 68 304 1.0 4.0 0.00 0.00 0.00 44 1011.6
20260504175443 67 296 1.0 4.0 0.00 0.00 0.00 43 1011.4
20260504174945 67 326 1.0 3.0 0.00 0.00 0.00 42 1011.5
20260504174707 67 321 1.0 3.0 0.00 0.00 0.00 44 1011.4
20260504173942 67 65 1.0 5.0 0.00 0.00 0.00 42 1011.4
20260504173443 67 0 1.0 5.0 0.00 0.00 0.00 43 1011.4
20260504172943 67 321 1.0 8.0 0.00 0.00 0.00 44 1011.4
20260504172437 67 284 1.0 8.0 0.00 0.00 0.00 44 1011.3
20260504171930 67 288 1.0 5.0 0.00 0.00 0.00 41 1011.4
20260504171653 67 303 1.0 4.0 0.00 0.00 0.00 44 1011.2
20260504170919 66 304 0.0 4.0 0.00 0.00 0.00 47 1011.3
20260504170412 66 284 1.0 4.0 0.00 0.00 0.00 44 1011.2
20260504151047 56 70 0.0 1.0 0.00 0.00 0.00 63 1011.5
20260504150321 55 70 0.0 0.0 0.00 0.00 0.00 66 1011.4
20260504141221 51 42 0.0 2.0 0.00 0.00 0.00 70 1011.1
20260504140716 50 82 0.0 0.0 0.00 0.00 0.00 71 1011.1
20260504140210 50 82 0.0 0.0 0.00 0.00 0.00 71 1011.1
20260504130603 51 60 0.0 0.0 0.00 0.00 0.00 67 1010.6
20260504110556 49 89 1.0 2.0 0.00 0.00 0.00 72 1010.0
20260504100238 48 89 0.0 1.0 0.00 0.00 0.00 75 1010.1
20260504081731 52 89 0.0 0.0 0.00 0.00 0.00 67 1010.0
20260504081231 52 89 0.0 0.0 0.00 0.00 0.00 68 1009.9
20260504080744 52 89 0.0 0.0 0.00 0.00 0.00 66 1009.9
20260504080231 51 89 0.0 0.0 0.00 0.00 0.00 67 1009.9
20260504070353 53 89 0.0 2.0 0.00 0.00 0.00 64 1009.8
20260504045751 58 113 0.0 0.0 0.00 0.00 0.00 57 1010.0
20260504045023 58 113 0.0 1.0 0.00 0.00 0.00 58 1010.0
20260504044518 58 113 0.0 1.0 0.00 0.00 0.00 55 1009.9
20260504044012 58 113 0.0 0.0 0.00 0.00 0.00 56 1010.0
20260504043507 59 113 0.0 0.0 0.00 0.00 0.00 58 1010.0
20260504043000 59 113 0.0 1.0 0.00 0.00 0.00 55 1010.0
20260504042454 59 113 0.0 2.0 0.00 0.00 0.00 53 1010.0
20260504041948 59 113 0.0 2.0 0.00 0.00 0.00 57 1009.9
20260504041442 60 113 0.0 2.0 0.00 0.00 0.00 54 1010.0
20260504041156 60 113 0.0 0.0 0.00 0.00 0.00 54 1009.9
20260504040430 61 113 0.0 0.0 0.00 0.00 0.00 50 1009.9
20260504035924 61 113 0.0 2.0 0.00 0.00 0.00 50 1009.9
20260504035418 62 113 1.0 2.0 0.00 0.00 0.00 50 1009.9
20260504034911 62 113 1.0 2.0 0.00 0.00 0.00 50 1009.8
20260504034627 62 113 0.0 2.0 0.00 0.00 0.00 49 1009.7
20260504033353 63 155 0.0 2.0 0.00 0.00 0.00 49 1009.6
20260504032341 65 155 0.0 0.0 0.00 0.00 0.00 48 1009.7
20260504031835 67 155 0.0 1.0 0.00 0.00 0.00 47 1009.6
20260504031330 67 155 0.0 1.0 0.00 0.00 0.00 40 1009.6
20260504030823 67 155 0.0 1.0 0.00 0.00 0.00 40 1009.7
20260504030318 68 155 1.0 2.0 0.00 0.00 0.00 41 1009.7
20260504025811 69 155 0.0 2.0 0.00 0.00 0.00 40 1009.7
20260504025306 70 155 0.0 2.0 0.00 0.00 0.00 39 1009.6
20260504024800 71 155 0.0 0.0 0.00 0.00 0.00 38 1009.6
20260504024254 71 155 0.0 0.0 0.00 0.00 0.00 37 1009.5
20260504023748 72 155 0.0 1.0 0.00 0.00 0.00 36 1009.5
20260504023242 72 155 0.0 1.0 0.00 0.00 0.00 34 1009.6
20260504022736 73 209 0.0 0.0 0.00 0.00 0.00 35 1009.6
20260504022451 73 209 0.0 1.0 0.00 0.00 0.00 34 1009.6
20260504021723 73 209 0.0 4.0 0.00 0.00 0.00 34 1009.5
20260504021218 74 176 0.0 4.0 0.00 0.00 0.00 34 1009.5
20260504020712 74 198 0.0 3.0 0.00 0.00 0.00 33 1009.7
20260504020204 75 226 0.0 2.0 0.00 0.00 0.00 32 1009.6
20260504015704 75 233 1.0 3.0 0.00 0.00 0.00 32 1009.7
20260504015150 76 222 1.0 4.0 0.00 0.00 0.00 30 1009.6
20260504014908 76 250 2.0 4.0 0.00 0.00 0.00 32 1009.8
20260504014401 76 223 2.0 4.0 0.00 0.00 0.00 27 1009.8
20260504013631 77 186 2.0 5.0 0.00 0.00 0.00 28 1009.7
20260504013126 77 214 2.0 5.0 0.00 0.00 0.00 28 1009.8
20260504012620 77 196 3.0 7.0 0.00 0.00 0.00 28 1009.9
20260504012114 77 241 2.0 7.0 0.00 0.00 0.00 27 1009.9
20260504011607 78 237 3.0 7.0 0.00 0.00 0.00 28 1010.0
20260504011321 78 229 2.0 7.0 0.00 0.00 0.00 26 1010.0
20260504010058 79 223 1.0 6.0 0.00 0.00 0.00 27 1010.1
20260504005557 78 234 2.0 7.0 0.00 0.00 0.00 27 1010.1
20260504005057 78 234 2.0 7.0 0.00 0.00 0.00 25 1010.2
20260504004554 78 219 3.0 8.0 0.00 0.00 0.00 28 1010.2
20260504004054 78 257 3.0 9.0 0.00 0.00 0.00 28 1010.3
20260504003555 79 208 2.0 9.0 0.00 0.00 0.00 24 1010.3
20260504003315 79 216 3.0 9.0 0.00 0.00 0.00 24 1010.3
20260504002552 79 236 2.0 9.0 0.00 0.00 0.00 25 1010.3
20260504002052 80 234 1.0 5.0 0.00 0.00 0.00 27 1010.3
20260504001553 80 239 0.0 7.0 0.00 0.00 0.00 26 1010.4
20260504001318 79 301 1.0 7.0 0.00 0.00 0.00 27 1010.3
20260504000812 79 216 2.0 7.0 0.00 0.00 0.00 28 1010.4
20260504000054 79 302 3.0 8.0 0.00 0.00 0.00 25 1010.6
20260503235554 79 199 3.0 8.0 0.00 0.00 0.00 22 1010.6
20260503235052 80 235 2.0 8.0 0.00 0.00 0.00 24 1010.7
20260503234550 80 246 2.0 7.0 0.00 0.00 0.00 23 1010.7
20260503234048 80 207 2.0 8.0 0.00 0.00 0.00 23 1010.7
20260503233548 80 248 1.0 8.0 0.00 0.00 0.00 26 1010.8
20260503233311 80 17 1.0 7.0 0.00 0.00 0.00 26 1010.8
20260503232546 80 355 1.0 7.0 0.00 0.00 0.00 24 1010.9
20260503232047 79 264 1.0 6.0 0.00 0.00 0.00 25 1011.0
20260503231546 79 216 2.0 4.0 0.00 0.00 0.00 22 1011.0
20260503231046 79 250 2.0 7.0 0.00 0.00 0.00 21 1011.0
20260503230546 80 236 1.0 7.0 0.00 0.00 0.00 20 1011.2
20260503230047 80 314 1.0 3.0 0.00 0.00 0.00 24 1011.1
20260503225546 79 231 1.0 4.0 0.00 0.00 0.00 22 1011.2
20260503225046 78 184 2.0 7.0 0.00 0.00 0.00 22 1011.2
20260503224546 78 193 2.0 7.0 0.00 0.00 0.00 20 1011.4
20260503224046 78 260 2.0 7.0 0.00 0.00 0.00 21 1011.4
20260503223546 78 219 2.0 5.0 0.00 0.00 0.00 21 1011.6
20260503223046 78 95 2.0 7.0 0.00 0.00 0.00 20 1011.6
20260503222546 78 107 2.0 7.0 0.00 0.00 0.00 20 1011.7
20260503222304 78 248 2.0 6.0 0.00 0.00 0.00 23 1011.7
20260503221546 78 244 1.0 6.0 0.00 0.00 0.00 21 1011.8
20260503221047 77 182 1.0 8.0 0.00 0.00 0.00 21 1011.8
20260503220544 77 250 2.0 8.0 0.00 0.00 0.00 21 1012.0
20260503220044 77 213 2.0 7.0 0.00 0.00 0.00 21 1012.0
20260503215544 77 327 2.0 7.0 0.00 0.00 0.00 23 1012.1
20260503215044 77 87 2.0 7.0 0.00 0.00 0.00 21 1012.2
20260503214542 77 317 2.0 7.0 0.00 0.00 0.00 23 1012.3
20260503214042 77 298 2.0 4.0 0.00 0.00 0.00 24 1012.3
20260503213542 77 248 1.0 6.0 0.00 0.00 0.00 25 1012.4
20260503213040 76 260 2.0 6.0 0.00 0.00 0.00 29 1012.5
20260503212541 76 309 2.0 5.0 0.00 0.00 0.00 27 1012.7
20260503212040 76 232 3.0 8.0 0.00 0.00 0.00 23 1012.8
20260503211540 76 269 3.0 8.0 0.00 0.00 0.00 24 1012.7
20260503211041 77 272 2.0 7.0 0.00 0.00 0.00 22 1012.9
20260503210539 77 255 1.0 4.0 0.00 0.00 0.00 23 1012.9
20260503210032 76 198 1.0 4.0 0.00 0.00 0.00 26 1013.0
20260503205525 76 255 1.0 4.0 0.00 0.00 0.00 26 1013.2
20260503205027 75 251 1.0 3.0 0.00 0.00 0.00 27 1013.3
20260503204526 74 245 1.0 4.0 0.00 0.00 0.00 23 1013.3
20260503204026 75 216 2.0 5.0 0.00 0.00 0.00 22 1013.3
20260503203526 75 169 1.0 5.0 0.00 0.00 0.00 22 1013.6
20260503203024 75 25 1.0 5.0 0.00 0.00 0.00 23 1013.7
20260503202525 75 273 2.0 6.0 0.00 0.00 0.00 25 1013.7